Location: *
(48.8667°N, 2.3331°E)
Time: 17:14:33
(UTC+00:00)

SPOT 5 - Visible Passes

Search period start: 06 August 2020 00:00
Search period end: 16 August 2020 00:00
Orbit: 622 x 816 km, 98.3° (Epoch: 06 August)

Date Brightness Start Highest point End Pass type
(mag) Time Alt. Az. Time Alt. Az. Time Alt. Az.
06 Aug 3.6 20:38:09 16° ESE 20:40:59 32° ENE 20:44:51 10° N visible
06 Aug 4.1 22:17:23 22° SW 22:19:06 29° W 22:22:55 10° NW visible
07 Aug 2.5 21:26:39 31° SSE 21:28:41 90° SE 21:33:04 10° NNW visible
07 Aug 5.2 23:06:51 10° W 23:07:29 10° W 23:08:07 10° WNW visible
08 Aug 3.7 20:35:55 16° ESE 20:38:37 30° ENE 20:42:27 10° N visible
08 Aug 4.0 22:15:08 24° SW 22:16:42 31° W 22:20:36 10° NNW visible
09 Aug 2.5 21:24:23 33° SSE 21:26:18 85° ENE 21:30:41 10° NNW visible
09 Aug 5.2 23:03:54 10° WSW 23:05:05 11° W 23:06:15 10° WNW visible
10 Aug 3.7 20:33:39 16° ESE 20:36:16 29° ENE 20:40:03 10° N visible
10 Aug 3.9 22:12:53 26° SW 22:14:18 32° W 22:18:16 10° NNW visible
11 Aug 4.8 19:45:07 10° ENE 19:46:35 12° NE 19:48:04 10° NE visible
11 Aug 2.5 21:22:09 35° SSE 21:23:55 81° ENE 21:28:20 10° NNW visible
11 Aug 5.1 23:01:23 10° WSW 23:02:40 12° W 23:04:12 10° WNW visible
12 Aug 3.8 20:31:25 17° ESE 20:33:54 28° ENE 20:37:40 10° N visible
12 Aug 3.8 22:10:38 28° SW 22:11:55 34° W 22:15:57 10° NNW visible
13 Aug 4.8 19:42:59 10° ENE 19:44:15 11° NE 19:45:32 10° NE visible
13 Aug 2.5 21:19:54 38° SSE 21:21:32 77° ENE 21:25:58 10° NNW visible
13 Aug 5.1 22:59:08 11° WSW 23:00:16 12° W 23:02:06 10° WNW visible
14 Aug 3.9 20:29:09 17° ESE 20:31:33 27° ENE 20:35:17 10° N visible
14 Aug 3.7 22:08:23 31° SW 22:09:31 36° W 22:13:37 10° NNW visible
15 Aug 4.9 19:40:52 10° ENE 19:41:55 11° NE 19:42:59 10° NE visible
15 Aug 2.6 21:17:38 40° SSE 21:19:09 73° ENE 21:23:37 10° N visible
15 Aug 5.0 22:56:53 12° WSW 22:57:51 13° W 22:59:57 10° WNW visible
